Location: Mountain View
(37.3861°N, 122.0839°W)
Time: 23:47:19
(UTC-07:00)

ARIANE 6 FM1 Upper Stage - Pass Details

Date: 10 May 2026
Orbit: 528 x 599 km, 62.0° (Epoch: 10 June)

Event Time Altitude Azimuth Distance (km) Brightness Sun altitude
Rises 20:47:56 0° 316° (NW) 2,667 7.9 -8.2°
Reaches altitude 10° 20:50:16 10° 307° (NW) 1,773 6.9 -8.6°
Maximum altitude 20:53:52 34° 242° (WSW) 886 4.0 -9.2°
Drops below altitude 10° 20:57:29 10° 177° (S) 1,774 4.9 -9.8°
Enters shadow 20:58:54 - 170° (S) 2,315 5.4 -10.1°
